Flag for India Weather past 2 weeks in Amritsar, Punjab, India

Now
37 °F

Fog.


Feels Like: 37 °F
Forecast: 41 / 61 °F
Wind: No wind

Location: Amritsar Airport

Current Time: Jan 28, 2015 at 5:10:19 AM

Latest Report: Jan 28, 2015 at 4:30 AM


Visibility: 0 mi

Pressure: 30.07 "Hg

Humidity: 100%

Dew point: 37 °F

Location of AmritsarLocation

Historic Weather in Amritsar — Graph

°F

Amritsar temperature yesterday

Maximum temperature yesterday: 55 °F (at 2:30 PM)
Minimum temperature yesterday: 39 °F (at 7:00 AM)
Average temperature yesterday: 46 °F

Past Weeks' High & Low Weather Summary

 TemperatureHumidityPressure
High68 °F (Jan 17, 2:00 PM)100% (Jan 13, 3:30 AM)30.24 "Hg (Jan 13, 3:30 AM)
Low36 °F (Jan 28, 2:30 AM)49% (Jan 15, 4:00 PM)29.95 "Hg (Jan 13, 4:30 PM)
Average52 °F88%30.11 "Hg
* Reported Jan 13 3:30 AM — Jan 28 3:30 AM, Amritsar, Weather by CustomWeather, © 2014

Note: Actual official high and low records may vary slightly from our data, if they occured in-between our weather recording intervals... More about our weather records

Advertising

Amritsar weather history for previous 24 hours

 ConditionsComfort  
Time TempWeatherWind HumidityBarometerVisibility
3:30 AM
Jan 28
37 °FFog.No wind100%30.09 "Hg0 mi
3:00 AM37 °FFog.No wind100%30.09 "Hg0 mi
2:30 AM36 °FFog.No wind100%30.09 "Hg0 mi
2:00 AM37 °FFog.No wind100%30.12 "Hg0 mi
1:30 AM39 °FFog.No wind100%30.12 "Hg0 mi
1:00 AM39 °FFog.No wind100%30.12 "Hg0 mi
12:30 AM39 °FFog.No wind100%30.12 "Hg0 mi
12:00 AM39 °FFog.No wind100%30.15 "Hg0 mi
9:00 PM
Jan 27
45 °FLight fog.No wind100%30.12 "Hg1 mi
8:00 PM48 °FFog.No wind94%30.12 "Hg1 mi
6:30 PM50 °FFog.No wind94%30.12 "Hg1 mi
6:00 PM52 °FFog.No wind88%30.12 "Hg1 mi
5:30 PM54 °FFog.1 mph88%30.12 "Hg1 mi
5:00 PM55 °FFog.7 mph82%30.12 "Hg1 mi
4:30 PM55 °FFog.8 mph82%30.12 "Hg1 mi
4:00 PM55 °FFog.6 mph82%30.12 "Hg1 mi
3:30 PM55 °FFog.3 mph82%30.12 "Hg1 mi
3:00 PM55 °FFog.2 mph82%30.15 "Hg1 mi
2:30 PM55 °FFog.No wind82%30.15 "Hg1 mi
2:00 PM54 °FFog.3 mph82%30.18 "Hg1 mi
1:00 PM54 °FFog.1 mph82%30.21 "Hg1 mi
12:00 PM50 °FFog.2 mph100%30.21 "Hg1 mi
11:30 AM48 °FFog.3 mph100%30.21 "Hg1 mi
10:30 AM45 °FFog.No wind100%30.21 "Hg0 mi
10:00 AM43 °FFog.No wind100%30.18 "Hg0 mi
9:30 AM41 °FFog.No wind100%30.18 "Hg0 mi
8:30 AM39 °FFog.No wind100%30.15 "Hg0 mi
8:00 AM39 °FFog.No wind100%30.15 "Hg0 mi
7:30 AM39 °FFog.No wind100%30.12 "Hg0 mi
7:00 AM39 °FFog.No wind100%30.12 "Hg0 mi
6:30 AM41 °FFog.No wind100%30.12 "Hg0 mi
6:00 AM41 °FFog.No wind100%30.12 "Hg0 mi
5:30 AM41 °FFog.No wind100%30.09 "Hg0 mi
5:00 AM41 °FFog.No wind100%30.09 "Hg0 mi
Weather by CustomWeather, © 2014

See weather overviewHow to use our weather pages